Home > Time Zones > World Clock > Weather > U.S.A. > Adak > Past weeks

Flag for U.S.A. Weather past 2 weeks in Adak, Alaska, U.S.A.

Now
57 °F

Scattered clouds.


Feels Like: 54 °F
Forecast: 51 / 54 °F
Wind: 13 mph from South

Location: Adak

Current Time: Jul 27, 2014 at 8:00:23 PM

Latest Report: Jul 27, 2014 at 7:36 PM


Visibility: 10 mi

Pressure: 30.21 "Hg

Humidity: 63%

Dew point: 45 °F

Location of AdakLocation

Historic Weather in Adak — Graph

°F

Adak temperature yesterday

Maximum temperature yesterday: 52 °F (at 12:56 PM)
Minimum temperature yesterday: 46 °F (at 1:56 AM)
Average temperature yesterday: 49 °F

Past Weeks' High & Low Weather Summary

 TemperatureHumidityPressure
High59 °F (Jul 27, 4:16 PM)94% (Jul 23, 10:16 AM)30.43 "Hg (Jul 23, 10:16 AM)
Low43 °F (Jul 16, 3:16 AM)63% (Jul 27, 4:16 PM)30.00 "Hg (Jul 21, 4:56 AM)
Average50 °F80%30.20 "Hg
* Reported Jul 12 6:36 PM — Jul 27 6:56 PM, Adak, Weather by CustomWeather, © 2014

Note: Actual official high and low records may vary slightly from our data, if they occured in-between our weather recording intervals... More about our weather records

Advertising

Adak weather history for previous 24 hours

 ConditionsComfort  
Time TempWeatherWind HumidityBarometerVisibility
6:56 PM
Jul 27
57 °FPartly sunny.10 mph63%30.21 "Hg10 mi
6:36 PM57 °FPartly sunny.16 mph63%30.22 "Hg10 mi
6:16 PM57 °FPartly sunny.16 mph67%30.22 "Hg10 mi
5:56 PM57 °FPartly sunny.14 mph63%30.22 "Hg10 mi
5:36 PM57 °FOvercast.14 mph67%30.22 "Hg10 mi
5:16 PM59 °FPartly sunny.12 mph63%30.22 "Hg10 mi
4:56 PM57 °FScattered clouds.16 mph67%30.23 "Hg10 mi
4:36 PM57 °FPartly sunny.17 mph67%30.23 "Hg10 mi
4:16 PM59 °FPartly sunny.15 mph63%30.23 "Hg10 mi
3:56 PM57 °FScattered clouds.14 mph67%30.23 "Hg10 mi
3:36 PM57 °FPassing clouds.17 mph67%30.23 "Hg10 mi
3:16 PM57 °FSunny.17 mph67%30.23 "Hg10 mi
2:56 PM55 °FPassing clouds.15 mph67%30.23 "Hg10 mi
2:36 PM55 °FSunny.17 mph67%30.23 "Hg10 mi
2:16 PM55 °FPassing clouds.18 mph67%30.23 "Hg10 mi
1:56 PM55 °FPartly sunny.17 mph67%30.23 "Hg10 mi
1:36 PM55 °FPartly sunny.15 mph67%30.23 "Hg10 mi
1:16 PM55 °FOvercast.13 mph67%30.23 "Hg10 mi
12:56 PM54 °FOvercast.15 mph72%30.23 "Hg10 mi
12:36 PM55 °FOvercast.9 mph67%30.23 "Hg10 mi
12:16 PM54 °FOvercast.10 mph72%30.23 "Hg10 mi
11:36 AM54 °FOvercast.12 mph72%30.23 "Hg10 mi
11:16 AM52 °FOvercast.10 mph77%30.23 "Hg10 mi
10:56 AM52 °FOvercast.14 mph77%30.24 "Hg10 mi
10:36 AM52 °FOvercast.13 mph77%30.24 "Hg10 mi
10:16 AM52 °FOvercast.9 mph77%30.24 "Hg10 mi
9:56 AM52 °FOvercast.8 mph77%30.23 "Hg10 mi
9:36 AM52 °FOvercast.3 mph77%30.23 "Hg10 mi
9:16 AM52 °FOvercast.5 mph72%30.23 "Hg10 mi
8:56 AM50 °FOvercast.No wind76%30.23 "Hg10 mi
8:36 AM50 °FOvercast.6 mph76%30.22 "Hg10 mi
8:16 AM50 °FOvercast.8 mph76%30.22 "Hg10 mi
7:56 AM50 °FOvercast.9 mph76%30.22 "Hg10 mi
7:36 AM50 °FOvercast.7 mph76%30.22 "Hg10 mi
7:16 AM50 °FOvercast.9 mph76%30.22 "Hg10 mi
6:56 AM50 °FOvercast.9 mph76%30.22 "Hg10 mi
6:36 AM50 °FOvercast.8 mph76%30.22 "Hg10 mi
6:16 AM50 °FOvercast.8 mph76%30.22 "Hg10 mi
5:56 AM50 °FOvercast.7 mph76%30.22 "Hg10 mi
5:36 AM50 °FOvercast.7 mph76%30.22 "Hg10 mi
5:16 AM50 °FOvercast.7 mph82%30.23 "Hg10 mi
4:56 AM48 °FOvercast.3 mph82%30.23 "Hg10 mi
4:36 AM48 °FOvercast.8 mph87%30.23 "Hg10 mi
4:16 AM48 °FOvercast.8 mph87%30.23 "Hg10 mi
3:56 AM48 °FOvercast.7 mph82%30.23 "Hg10 mi
3:36 AM48 °FOvercast.8 mph82%30.23 "Hg10 mi
3:16 AM48 °FOvercast.7 mph82%30.23 "Hg10 mi
2:56 AM48 °FOvercast.6 mph82%30.23 "Hg10 mi
2:36 AM48 °FOvercast.6 mph82%30.24 "Hg10 mi
2:16 AM48 °FOvercast.5 mph82%30.24 "Hg10 mi
1:56 AM50 °FOvercast.5 mph76%30.24 "Hg10 mi
1:36 AM50 °FOvercast.3 mph76%30.25 "Hg10 mi
1:16 AM50 °FOvercast.5 mph76%30.25 "Hg10 mi
12:56 AM50 °FOvercast.6 mph76%30.25 "Hg10 mi
12:36 AM50 °FOvercast.6 mph76%30.25 "Hg10 mi
12:16 AM50 °FOvercast.6 mph76%30.25 "Hg10 mi
11:56 PM
Jul 26
50 °FOvercast.10 mph76%30.24 "Hg10 mi
11:36 PM50 °FOvercast.10 mph76%30.24 "Hg10 mi
11:16 PM52 °FOvercast.7 mph72%30.23 "Hg10 mi
10:56 PM52 °FOvercast.6 mph72%30.22 "Hg10 mi
10:36 PM50 °FOvercast.7 mph76%30.22 "Hg10 mi
10:16 PM52 °FOvercast.7 mph72%30.21 "Hg10 mi
9:56 PM52 °FOvercast.9 mph72%30.21 "Hg10 mi
9:36 PM52 °FOvercast.12 mph72%30.21 "Hg10 mi
9:16 PM52 °FOvercast.10 mph72%30.21 "Hg10 mi
8:56 PM52 °FOvercast.10 mph72%30.21 "Hg10 mi
8:36 PM52 °FOvercast.12 mph72%30.21 "Hg10 mi
8:16 PM52 °FOvercast.9 mph72%30.21 "Hg10 mi
Weather by CustomWeather, © 2014

See weather overviewHow to use our weather pages